| time (UTC) | temp F | wind direction | speed knots | gust knots | rain 1hr in | rain 24hr in | rain mn in | humidity % | barometer mb |
| 20260506135025 | 46 | 140 | 2.6 | 4.3 | 0.00 | 0.00 | 0.00 | 87 | 1021.2 |
| 20260506134023 | 45 | 147 | 1.7 | 5.2 | 0.00 | 0.00 | 0.00 | 87 | 1021.2 |
| 20260506133020 | 45 | 128 | 1.7 | 3.5 | 0.00 | 0.00 | 0.00 | 86 | 1021.1 |
| 20260506132018 | 46 | 137 | 2.6 | 4.3 | 0.00 | 0.00 | 0.00 | 86 | 1021.1 |
| 20260506131016 | 46 | 147 | 2.6 | 5.2 | 0.00 | 0.00 | 0.00 | 86 | 1020.7 |
| 20260506130044 | 46 | 152 | 3.5 | 6.1 | 0.00 | 0.00 | 0.00 | 85 | 1020.6 |
| 20260506125022 | 46 | 146 | 3.5 | 6.1 | 0.00 | 0.00 | 0.00 | 86 | 1020.4 |
| 20260506124020 | 46 | 146 | 2.6 | 7.8 | 0.00 | 0.00 | 0.00 | 85 | 1020.3 |
| 20260506123016 | 46 | 152 | 3.5 | 5.2 | 0.00 | 0.00 | 0.00 | 86 | 1020.3 |
| 20260506122023 | 46 | 147 | 2.6 | 6.1 | 0.00 | 0.00 | 0.00 | 86 | 1020.1 |
| 20260506121042 | 47 | 144 | 2.6 | 6.1 | 0.00 | 0.00 | 0.00 | 86 | 1019.9 |
| 20260506120020 | 47 | 150 | 3.5 | 7.8 | 0.00 | 0.00 | 0.00 | 86 | 1019.7 |
| 20260506115018 | 47 | 144 | 2.6 | 6.1 | 0.00 | 0.00 | 0.00 | 85 | 1019.6 |
| 20260506114016 | 47 | 145 | 2.6 | 5.2 | 0.00 | 0.00 | 0.00 | 84 | 1019.6 |
| 20260506113025 | 47 | 150 | 3.5 | 7.0 | 0.00 | 0.00 | 0.00 | 84 | 1019.3 |
| 20260506112021 | 47 | 152 | 3.5 | 8.7 | 0.00 | 0.00 | 0.00 | 84 | 1019.3 |
| 20260506111019 | 48 | 146 | 3.5 | 7.0 | 0.00 | 0.00 | 0.00 | 83 | 1019.3 |
| 20260505203016 | 61 | 146 | 2.6 | 5.2 | 0.00 | 0.43 | 0.00 | 54 | 1014.2 |
| 20260505202024 | 60 | 138 | 2.6 | 6.1 | 0.00 | 0.43 | 0.00 | 56 | 1014.4 |
| 20260505201103 | 60 | 152 | 2.6 | 5.2 | 0.00 | 0.43 | 0.00 | 56 | 1014.4 |
| 20260505200022 | 60 | 172 | 2.6 | 7.0 | 0.00 | 0.43 | 0.00 | 56 | 1014.4 |
| 20260505195021 | 60 | 153 | 3.5 | 8.7 | 0.00 | 0.43 | 0.00 | 57 | 1014.4 |
| 20260505194039 | 61 | 149 | 3.5 | 11.3 | 0.00 | 0.43 | 0.00 | 56 | 1014.4 |
| 20260505193018 | 60 | 147 | 4.3 | 9.6 | 0.00 | 0.43 | 0.00 | 56 | 1014.4 |
| 20260505192016 | 60 | 137 | 3.5 | 7.8 | 0.00 | 0.43 | 0.00 | 58 | 1014.5 |
| 20260505191024 | 58 | 4 | 2.6 | 7.8 | 0.00 | 0.43 | 0.00 | 59 | 1014.5 |
| 20260505190022 | 57 | 145 | 3.5 | 6.1 | 0.00 | 0.43 | 0.00 | 60 | 1014.4 |
| 20260505185100 | 57 | 130 | 3.5 | 6.1 | 0.00 | 0.43 | 0.00 | 63 | 1014.6 |
| 20260505184019 | 57 | 32 | 3.5 | 8.7 | 0.00 | 0.43 | 0.00 | 62 | 1014.4 |
| 20260505183018 | 57 | 89 | 3.5 | 7.8 | 0.00 | 0.43 | 0.00 | 63 | 1014.4 |
| 20260505182016 | 56 | 134 | 4.3 | 7.8 | 0.00 | 0.43 | 0.00 | 64 | 1014.5 |
| 20260505181046 | 55 | 147 | 5.2 | 9.6 | 0.00 | 0.43 | 0.00 | 64 | 1014.4 |
| 20260505180023 | 56 | 155 | 5.2 | 9.6 | 0.00 | 0.43 | 0.00 | 65 | 1014.3 |
| 20260505175019 | 55 | 130 | 3.5 | 7.8 | 0.00 | 0.43 | 0.00 | 66 | 1014.1 |
| 20260505174038 | 54 | 134 | 4.3 | 8.7 | 0.00 | 0.43 | 0.00 | 67 | 1014.1 |
| 20260505173016 | 53 | 289 | 3.5 | 7.8 | 0.00 | 0.43 | 0.00 | 71 | 1014.0 |
| 20260505172024 | 51 | 340 | 2.6 | 7.0 | 0.00 | 0.43 | 0.00 | 71 | 1014.0 |
| 20260505171024 | 51 | 306 | 2.6 | 7.0 | 0.00 | 0.43 | 0.00 | 74 | 1014.1 |
| 20260505170022 | 50 | 303 | 3.5 | 12.2 | 0.00 | 0.43 | 0.00 | 74 | 1014.2 |
| 20260505165021 | 49 | 325 | 2.6 | 5.2 | 0.00 | 0.43 | 0.00 | 76 | 1014.0 |
| 20260505164020 | 49 | 293 | 4.3 | 11.3 | 0.00 | 0.43 | 0.00 | 77 | 1014.0 |
| 20260505163018 | 49 | 327 | 2.6 | 7.0 | 0.00 | 0.43 | 0.00 | 79 | 1014.1 |
| 20260505162017 | 48 | 330 | 1.7 | 5.2 | 0.00 | 0.43 | 0.00 | 79 | 1014.0 |
| 20260505161024 | 48 | 104 | 1.7 | 6.1 | 0.00 | 0.43 | 0.00 | 80 | 1014.0 |
| 20260505153017 | 46 | 136 | 1.7 | 4.3 | 0.00 | 0.43 | 0.00 | 84 | 1013.7 |
| 20260505152016 | 46 | 144 | 2.6 | 6.1 | 0.00 | 0.43 | 0.00 | 85 | 1013.6 |
| 20260505151015 | 45 | 141 | 1.7 | 5.2 | 0.00 | 0.43 | 0.00 | 87 | 1013.3 |